Regional Weather Roundup
Issued by NWS Cleveland, OH

Home | Current Version | Previous Version | Text Only | Print | Product List | Glossary Off
Versions: 1 2 3 4 5 6 7 8 9 10 11 12 13 14 15 16 17 18 19 20 21 22 23 24 25 26 27 28 29 30 31 32 33 34 35 36 37 38 39 40 41 42 43 44 45 46 47 48 49 50

000
ASUS41 KCLE 020000
RWRCLE
OHIO REGIONAL WEATHER ROUNDUP
NATIONAL WEATHER SERVICE WILMINGTON, OH
800 PM EDT WED JUL 01 2015

NOTE: "FAIR" INDICATES FEW OR NO CLOUDS BELOW 12,000 FEET WITH NO
SIGNIFICANT WEATHER AND/OR OBSTRUCTIONS TO VISIBILITY.

OHZ001>008-015>018-024>027-034-035-043-044-020100-
   NORTHWEST OHIO

CITY           SKY/WX    TMP DP  RH WIND       PRES   REMARKS
DEFIANCE       SUNNY     70  56  61 NW8       29.91R
FINDLAY        SUNNY     73  56  54 NW5       29.90R
TOLEDO EXPRESS PTSUNNY   71  55  56 NW6       29.90R
TOLEDO EXEC    MOSUNNY   73  54  51 W7        29.91R
LIMA           MOSUNNY   72  58  61 N5        29.91R
$$

OHZ009>014-019>023-028>033-038-089-020100-
   NORTHEAST OHIO

CITY           SKY/WX    TMP DP  RH WIND       PRES   REMARKS
CLE-HOPKINS    PTCLDY    70  60  70 N7        29.92R
CLE-LAKEFRONT  PTCLDY    70  59  68 NW6       29.90R
CUY CO. ARPT   PTCLDY    70  59  68 NW9       29.91S
LORAIN-ELYRIA  MOSUNNY   69  60  73 N5        29.91R
ASHTABULA      CLEAR     69  57  65 N3        29.91S
AKRON-CANTON   PTCLDY    73  57  57 W6        29.90S
WOOSTER        NOT AVBL
MANSFIELD      SUNNY     71  57  61 W3        29.93R
YOUNGSTOWN     MOCLDY    70  58  65 NW3       29.91R
$$

OHZ042-051>053-060>062-070>072-077>081-020100-
  SOUTHWEST OHIO

CITY           SKY/WX    TMP DP  RH WIND       PRES   REMARKS
CINC-COVINGTON CLOUDY    75  64  68 W3        29.91R
CINC-LUNKEN    MOSUNNY   73  67  81 S3        29.90R
HAMILTON       MOSUNNY   74  66  76 CALM      29.91R
DAYTON         NOT AVBL
WRIGHT-PAT AFB MOSUNNY   76  58  53 N5        29.91R
DAYTON GENERAL MOSUNNY   76  58  53 W5        29.91R
WILMINGTON     SUNNY     73  60  63 SW3       29.91R
$$

OHZ036-037-039>041-045>050-054>059-063>069-073>076-082>088-020100-
  CENTRAL AND SOUTHEAST OHIO

CITY           SKY/WX    TMP DP  RH WIND       PRES   REMARKS
COLUMBUS       MOSUNNY   74  56  53 W8        29.90R
OSU AIRPORT    MOSUNNY   74  58  57 NW7       29.91R
BOLTON FIELD   NOT AVBL
RICKENBACK AFB NOT AVBL
NEWARK         CLEAR     75  60  59 NW3       29.90S
MARION         SUNNY     71  57  61 NW5       29.92R
LANCASTER      CLEAR     74  63  68 CALM      29.91S
ZANESVILLE     CLEAR     74  58  57 CALM      29.91S
NEW PHILLY     CLEAR     72  59  63 CALM      29.91S
$$


USA.gov is the U.S. government's official web portal to all federal, state and local government web resources and services.